Flag for Canada Weather past 2 weeks in Brandon, Manitoba, Canada

Now
66 °F

Partly sunny.


Feels Like: 66 °F
Forecast: 44 / 71 °F
Wind: 5 mph from Northwest

Location: Brandon

Current Time: Sep 2, 2014 at 2:09:31 PM

Latest Report: Sep 2, 2014 at 1:00 PM


Visibility: 15 mi

Pressure: 29.71 "Hg

Humidity: 64%

Dew point: 54 °F

Location of BrandonLocation

Historic Weather in Brandon — Graph

°F

Brandon temperature yesterday

Maximum temperature yesterday: 72 °F (at 2:00 PM)
Minimum temperature yesterday: 46 °F (at 5:00 AM)
Average temperature yesterday: 59 °F

Past Weeks' High & Low Weather Summary

 TemperatureHumidityPressure
High84 °F (Aug 28, 4:00 PM)100% (Aug 19, 2:00 AM)30.23 "Hg (Aug 19, 2:00 AM)
Low37 °F (Aug 26, 7:00 AM)36% (Sep 1, 5:00 PM)29.60 "Hg (Aug 31, 12:00 PM)
Average60 °F82%29.88 "Hg
* Reported Aug 18 12:00 Noon — Sep 2 12:00 Noon, Brandon, Weather by CustomWeather, © 2014

Note: Actual official high and low records may vary slightly from our data, if they occured in-between our weather recording intervals... More about our weather records

Advertising

Brandon weather history for previous 24 hours

 ConditionsComfort  
Time TempWeatherWind HumidityBarometerVisibility
12:00 PM
Sep 2
63 °FSprinkles. Partly sunny.8 mph73%29.73 "Hg15 mi
11:49 AM64 °FSprinkles. Broken clouds.10 mph64%29.73 "Hg15 mi
11:00 AM63 °FBroken clouds.9 mph64%29.73 "Hg15 mi
10:00 AM59 °FPartly sunny.6 mph72%29.73 "Hg15 mi
9:00 AM55 °FPartly sunny.No wind82%29.75 "Hg15 mi
8:00 AM46 °FPartly sunny.6 mph100%29.75 "Hg15 mi
7:00 AM45 °FPassing clouds.2 mph100%29.75 "Hg15 mi
6:00 AM46 °FPassing clouds.2 mph100%29.76 "Hg15 mi
5:00 AM46 °FPassing clouds.3 mph100%29.76 "Hg15 mi
4:00 AM45 °FPassing clouds.5 mph100%29.76 "Hg15 mi
3:00 AM45 °FClear.5 mph100%29.77 "Hg15 mi
2:00 AM46 °FClear.7 mph93%29.77 "Hg15 mi
1:00 AM48 °FClear.6 mph94%29.77 "Hg15 mi
12:00 AM48 °FClear.8 mph94%29.77 "Hg15 mi
11:00 PM
Sep 1
50 °FClear.7 mph88%29.77 "Hg15 mi
10:00 PM54 °FClear.7 mph82%29.76 "Hg15 mi
9:00 PM55 °FPassing clouds.8 mph77%29.75 "Hg15 mi
8:00 PM63 °FPassing clouds.9 mph59%29.74 "Hg15 mi
7:00 PM68 °FPassing clouds.16 mph46%29.73 "Hg15 mi
6:00 PM72 °FPassing clouds.16 mph41%29.73 "Hg15 mi
5:00 PM72 °FScattered clouds.22 mph36%29.72 "Hg15 mi
4:00 PM72 °FPartly sunny.23 mph38%29.72 "Hg15 mi
3:00 PM72 °FPartly sunny.16 mph41%29.73 "Hg15 mi
2:00 PM72 °FPartly sunny.18 mph41%29.74 "Hg15 mi
Weather by CustomWeather, © 2014

See weather overviewHow to use our weather pages